Lid_Strength_Index
-0 0 0 0 1 1 1 0 -0 -0 -0 -0 -1 -0 -0 0 1 1 1 2 2 2
-0 -0 0 0 2 2 2 3 2 -0 0 1 0 0 -0 1 1 1 1 3 4 4
-0 -0 1 1 3 3 4 4 4 2 2 2 1 1 0 2 4 5 5 5 6 6
0 1 2 2 3 4 4 5 5 4 3 3 3 2 2 3 5 6 7 8 8 8
2 3 4 4 4 5 5 5 5 5 4 4 3 4 5 5 4 6 6 5 7 8
2 4 6 5 4 4 5 6 6 5 5 5 4 5 5 6 6 6 6 4 5 6
5 5 5 3 2 2 2 2 3 4 4 4 4 5 7 7 8 7 7 6 5 6
4 4 4 3 3 2 2 3 4 4 4 5 6 6 8 8 9 8 8 7 7 5
3 3 4 4 3 3 4 4 5 5 5 6 7 7 7 7 7 6 5 5 6 6
3 4 4 3 3 4 5 5 5 5 5 5 6 7 7 7 6 6 6 6 6 7
4 5 5 3 4 4 4 5 5 4 5 5 6 7 7 6 6 6 6 6 7 6
5 5 3 4 4 4 5 5 4 4 5 5 5 6 6 6 5 5 5 4 5 4
4 4 5 5 4 5 4 4 4 4 4 5 4 7 7 6 4 4 5 4 4 6
4 4 4 4 5 6 6 5 5 5 4 4 5 5 7 7 4 5 4 4 4 4